| time (UTC) | temp F | wind direction | speed knots | gust knots | rain 1hr in | rain 24hr in | rain mn in | humidity % | barometer mb |
| 20260906093103 | 71 | 0 | 0.0 | 0.9 | 0.00 | 0.17 | 0.00 | 92 | 1013.9 |
| 20260906091555 | 71 | 0 | 0.0 | 1.7 | 0.00 | 0.17 | 0.00 | 92 | 1013.9 |
| 20260906090115 | 71 | 0 | 0.0 | 0.9 | 0.00 | 0.17 | 0.00 | 92 | 1013.9 |
| 20260906084609 | 71 | 0 | 0.0 | 1.7 | 0.00 | 0.17 | 0.00 | 92 | 1014.0 |
| 20260906083055 | 71 | 0 | 0.0 | 2.6 | 0.00 | 0.17 | 0.00 | 92 | 1014.0 |
| 20260906081558 | 72 | 115 | 0.0 | 2.6 | 0.00 | 0.17 | 0.00 | 91 | 1013.8 |
| 20260906080104 | 72 | 163 | 0.0 | 1.7 | 0.00 | 0.17 | 0.00 | 91 | 1013.7 |
| 20260906074607 | 72 | 0 | 0.0 | 1.7 | 0.00 | 0.17 | 0.00 | 91 | 1013.4 |
| 20260906073106 | 72 | 0 | 0.0 | 1.7 | 0.00 | 0.17 | 0.00 | 91 | 1013.5 |
| 20260906071555 | 72 | 0 | 0.0 | 0.9 | 0.00 | 0.17 | 0.00 | 91 | 1013.7 |
| 20260906070113 | 72 | 0 | 0.0 | 1.7 | 0.00 | 0.17 | 0.00 | 91 | 1013.7 |
| 20260906064559 | 72 | 0 | 0.0 | 1.7 | 0.00 | 0.17 | 0.00 | 92 | 1013.7 |
| 20260906063056 | 72 | 0 | 0.0 | 0.0 | 0.00 | 0.17 | 0.00 | 92 | 1013.9 |
| 20260906061635 | 72 | 0 | 0.0 | 0.9 | 0.00 | 0.17 | 0.00 | 92 | 1014.2 |
| 20260906060104 | 72 | 0 | 0.0 | 0.9 | 0.00 | 0.17 | 0.00 | 92 | 1014.5 |
| 20260906054559 | 72 | 0 | 0.0 | 0.0 | 0.00 | 0.17 | 0.00 | 92 | 1014.7 |
| 20260906053058 | 72 | 0 | 0.0 | 1.7 | 0.00 | 0.17 | 0.00 | 92 | 1014.7 |
| 20260906051554 | 72 | 0 | 0.0 | 2.6 | 0.00 | 0.17 | 0.00 | 92 | 1014.9 |
| 20260906050109 | 73 | 0 | 0.0 | 2.6 | 0.00 | 0.17 | 0.00 | 91 | 1014.9 |
| 20260906044558 | 73 | 0 | 0.0 | 0.9 | 0.00 | 0.17 | 0.00 | 91 | 1014.9 |
| 20260906043108 | 73 | 135 | 0.0 | 1.7 | 0.00 | 0.17 | 0.00 | 90 | 1015.1 |
| 20260906041605 | 73 | 135 | 0.0 | 0.9 | 0.00 | 0.17 | 0.00 | 89 | 1014.9 |
| 20260906040116 | 73 | 0 | 0.0 | 0.9 | 0.00 | 0.17 | 0.00 | 89 | 1015.0 |
| 20260906034558 | 73 | 117 | 0.0 | 2.6 | 0.00 | 0.17 | 0.17 | 89 | 1015.2 |
| 20260906033058 | 73 | 0 | 0.9 | 2.6 | 0.00 | 0.17 | 0.17 | 89 | 1015.2 |
| 20260906031610 | 73 | 0 | 0.0 | 2.6 | 0.00 | 0.17 | 0.17 | 88 | 1015.2 |
| 20260906030108 | 74 | 271 | 0.0 | 2.6 | 0.00 | 0.17 | 0.17 | 87 | 1015.2 |
| 20260906024556 | 74 | 0 | 0.9 | 2.6 | 0.00 | 0.17 | 0.17 | 87 | 1015.3 |
| 20260906023115 | 74 | 153 | 0.0 | 2.6 | 0.00 | 0.17 | 0.17 | 88 | 1015.3 |
| 20260906021556 | 75 | 0 | 0.0 | 2.6 | 0.00 | 0.17 | 0.17 | 88 | 1015.0 |
| 20260906020056 | 75 | 0 | 0.0 | 0.0 | 0.00 | 0.17 | 0.17 | 87 | 1015.2 |
| 20260906014626 | 76 | 0 | 0.9 | 4.3 | 0.00 | 0.17 | 0.17 | 86 | 1015.1 |
| 20260906013100 | 76 | 88 | 3.5 | 7.0 | 0.00 | 0.17 | 0.17 | 85 | 1015.2 |
| 20260906011600 | 76 | 0 | 0.9 | 6.1 | 0.00 | 0.17 | 0.17 | 88 | 1015.0 |
| 20260906010058 | 76 | 0 | 0.0 | 2.6 | 0.00 | 0.17 | 0.17 | 91 | 1014.5 |
| 20260906004614 | 76 | 213 | 0.0 | 1.7 | 0.00 | 0.17 | 0.17 | 90 | 1014.2 |
| 20260906003104 | 77 | 0 | 0.0 | 3.5 | 0.00 | 0.17 | 0.17 | 89 | 1013.8 |
| 20260906001559 | 77 | 162 | 0.0 | 1.7 | 0.00 | 0.17 | 0.17 | 87 | 1013.5 |
| 20260906000107 | 78 | 162 | 0.0 | 0.9 | 0.00 | 0.17 | 0.17 | 87 | 1013.4 |
| 20260905234604 | 79 | 0 | 0.0 | 2.6 | 0.00 | 0.17 | 0.17 | 84 | 1013.6 |
| 20260905233100 | 79 | 0 | 0.9 | 2.6 | 0.00 | 0.17 | 0.17 | 84 | 1013.9 |
| 20260905231557 | 80 | 88 | 0.9 | 2.6 | 0.00 | 0.17 | 0.17 | 80 | 1013.8 |
| 20260905230110 | 80 | 0 | 0.0 | 3.5 | 0.00 | 0.17 | 0.17 | 80 | 1013.9 |
| 20260905224607 | 80 | 118 | 0.9 | 6.1 | 0.00 | 0.17 | 0.17 | 79 | 1013.9 |
| 20260905223107 | 81 | 121 | 2.6 | 6.1 | 0.00 | 0.17 | 0.17 | 80 | 1013.8 |
| 20260905221627 | 80 | 0 | 0.0 | 2.6 | 0.00 | 0.17 | 0.17 | 80 | 1013.8 |
| 20260905220127 | 80 | 232 | 0.0 | 2.6 | 0.00 | 0.17 | 0.17 | 77 | 1013.9 |
| 20260905214611 | 80 | 189 | 0.0 | 2.6 | 0.00 | 0.17 | 0.17 | 76 | 1013.7 |
| 20260905213115 | 81 | 324 | 0.0 | 5.2 | 0.00 | 0.17 | 0.17 | 76 | 1013.5 |
| 20260905211623 | 80 | 200 | 1.7 | 5.2 | 0.00 | 0.17 | 0.17 | 77 | 1013.8 |
| 20260905210125 | 79 | 327 | 0.9 | 3.5 | 0.00 | 0.17 | 0.17 | 77 | 1014.0 |
| 20260905204624 | 77 | 34 | 0.9 | 2.6 | 0.02 | 0.17 | 0.17 | 80 | 1014.0 |
| 20260905203105 | 76 | 319 | 1.7 | 5.2 | 0.17 | 0.17 | 0.17 | 85 | 1015.2 |
| 20260905201604 | 76 | 317 | 1.7 | 3.5 | 0.17 | 0.17 | 0.17 | 85 | 1015.0 |
| 20260905200109 | 76 | 130 | 1.7 | 7.8 | 0.17 | 0.17 | 0.17 | 76 | 1015.3 |
| 20260905194607 | 81 | 216 | 5.2 | 20.9 | 0.15 | 0.15 | 0.15 | 78 | 1015.2 |
| 20260905193104 | 93 | 190 | 6.1 | 20.0 | 0.00 | 0.00 | 0.00 | 51 | 1014.5 |
| 20260905191604 | 93 | 0 | 2.6 | 4.3 | 0.00 | 0.00 | 0.00 | 51 | 1014.0 |
| 20260905190108 | 93 | 51 | 0.9 | 7.0 | 0.00 | 0.00 | 0.00 | 53 | 1014.0 |
| 20260905184609 | 94 | 210 | 0.9 | 6.1 | 0.00 | 0.00 | 0.00 | 52 | 1014.4 |
| 20260905183126 | 94 | 57 | 1.7 | 6.1 | 0.00 | 0.00 | 0.00 | 52 | 1014.4 |
| 20260905181605 | 93 | 295 | 1.7 | 6.1 | 0.00 | 0.00 | 0.00 | 49 | 1014.4 |
| 20260905180100 | 93 | 306 | 1.7 | 6.1 | 0.00 | 0.00 | 0.00 | 51 | 1014.6 |
| 20260905174606 | 93 | 159 | 1.7 | 6.1 | 0.00 | 0.00 | 0.00 | 52 | 1014.8 |
| 20260905173104 | 92 | 196 | 1.7 | 6.1 | 0.00 | 0.00 | 0.00 | 54 | 1015.0 |
| 20260905171605 | 92 | 223 | 0.9 | 3.5 | 0.00 | 0.00 | 0.00 | 58 | 1014.9 |
| 20260905170101 | 91 | 0 | 1.7 | 7.0 | 0.00 | 0.00 | 0.00 | 57 | 1015.3 |
| 20260905164608 | 91 | 360 | 2.6 | 6.1 | 0.00 | 0.00 | 0.00 | 57 | 1015.5 |
| 20260905163105 | 90 | 298 | 2.6 | 7.0 | 0.00 | 0.00 | 0.00 | 60 | 1015.8 |
| 20260905161554 | 91 | 352 | 0.9 | 7.0 | 0.00 | 0.00 | 0.00 | 61 | 1016.0 |
| 20260905160119 | 89 | 294 | 1.7 | 5.2 | 0.00 | 0.00 | 0.00 | 62 | 1016.1 |
| 20260905154557 | 89 | 236 | 0.9 | 3.5 | 0.00 | 0.00 | 0.00 | 65 | 1016.2 |
| 20260905153112 | 88 | 207 | 1.7 | 4.3 | 0.00 | 0.00 | 0.00 | 65 | 1016.2 |
| 20260905151609 | 88 | 297 | 1.7 | 4.3 | 0.00 | 0.00 | 0.00 | 65 | 1016.3 |
| 20260905150104 | 86 | 217 | 1.7 | 3.5 | 0.00 | 0.00 | 0.00 | 69 | 1016.4 |
| 20260905144555 | 85 | 234 | 1.7 | 4.3 | 0.00 | 0.00 | 0.00 | 70 | 1016.4 |
| 20260905143055 | 84 | 270 | 0.9 | 5.2 | 0.00 | 0.00 | 0.00 | 71 | 1016.5 |
| 20260905141602 | 83 | 190 | 1.7 | 5.2 | 0.00 | 0.00 | 0.00 | 72 | 1016.5 |
| 20260905140107 | 82 | 0 | 1.7 | 4.3 | 0.00 | 0.00 | 0.00 | 74 | 1016.7 |
| 20260905134556 | 81 | 207 | 1.7 | 3.5 | 0.00 | 0.00 | 0.00 | 77 | 1016.9 |
| 20260905133106 | 80 | 206 | 1.7 | 3.5 | 0.00 | 0.00 | 0.00 | 78 | 1017.0 |
| 20260905131610 | 79 | 189 | 0.0 | 2.6 | 0.00 | 0.00 | 0.00 | 80 | 1016.8 |
| 20260905130123 | 78 | 215 | 0.9 | 2.6 | 0.00 | 0.00 | 0.00 | 82 | 1016.8 |
| 20260905124557 | 76 | 0 | 0.0 | 2.6 | 0.00 | 0.00 | 0.00 | 84 | 1016.7 |
| 20260905123107 | 75 | 211 | 0.9 | 1.7 | 0.00 | 0.00 | 0.00 | 86 | 1016.8 |
| 20260905121604 | 73 | 0 | 0.0 | 2.6 | 0.00 | 0.00 | 0.00 | 90 | 1016.6 |
| 20260905120113 | 72 | 0 | 0.0 | 1.7 | 0.00 | 0.00 | 0.00 | 91 | 1016.5 |
| 20260905114605 | 72 | 0 | 0.0 | 0.9 | 0.00 | 0.00 | 0.00 | 92 | 1016.5 |
| 20260905113105 | 71 | 233 | 0.0 | 0.9 | 0.00 | 0.00 | 0.00 | 93 | 1016.2 |
| 20260905111613 | 71 | 0 | 0.0 | 0.9 | 0.00 | 0.00 | 0.00 | 93 | 1016.0 |
| 20260905104601 | 71 | 0 | 0.0 | 1.7 | 0.00 | 0.00 | 0.00 | 93 | 1015.8 |
| 20260905103102 | 71 | 0 | 0.0 | 0.9 | 0.00 | 0.00 | 0.00 | 94 | 1015.8 |
| 20260905101602 | 71 | 0 | 0.0 | 0.0 | 0.00 | 0.00 | 0.00 | 94 | 1015.8 |
| 20260905100109 | 72 | 0 | 0.0 | 0.9 | 0.00 | 0.00 | 0.00 | 93 | 1015.7 |
| 20260905094557 | 72 | 0 | 0.0 | 0.9 | 0.00 | 0.00 | 0.00 | 93 | 1015.8 |